Tracking 29892 objects as of 21-Nov-2024
HD Live streaming from Space Station
objects crossing your sky now

ALEXIS

Track ALEXIS now!
10-day predictions
ALEXIS is classified as:


NORAD ID: 22638
Int'l Code: 1993-026A
Perigee: 743.6 km
Apogee: 831.8 km
Inclination: 69.9 °
Period: 100.5 minutes
Semi major axis: 7158 km
RCS: Unknown
Launch date: April 25, 1993
Source: United States (US)
Launch site: AIR FORCE WESTERN TEST RANGE (AFWTR)
Your satellite tracking list
Your tracking list is empty




NASA's NSSDC Master Catalog

Two Line Element Set (TLE):
1 22638U 93026A   24325.55848563  .00000263  00000-0  11453-3 0  9999
2 22638  69.9193 166.2027 0061588 226.2549 133.3469 14.33338963 27957
Source of the keplerian elements: McCants